TimePDT,TemperatureF,Dew PointF,Humidity,Sea Level PressureIn,VisibilityMPH,Wind Direction,Wind SpeedMPH,Gust SpeedMPH,PrecipitationIn,Events,Conditions,WindDirDegrees,DateUTC
12:49 AM,50.0,39.2,66,30.16,4.0,Calm,Calm,-,N/A,,Haze,0,2013-08-23 07:49:00
12:53 AM,50.0,39.0,66,29.99,4.0,Calm,Calm,-,N/A,,Haze,0,2013-08-23 07:53:00
1:32 AM,48.2,39.2,71,30.16,3.0,South,3.5,-,N/A,,Haze,180,2013-08-23 08:32:00
1:53 AM,48.0,37.9,68,29.99,3.0,SSW,4.6,-,N/A,,Haze,200,2013-08-23 08:53:00
2:25 AM,46.4,37.4,71,30.15,2.5,Calm,Calm,-,N/A,,Haze,0,2013-08-23 09:25:00
2:53 AM,46.0,37.9,73,29.98,2.0,South,3.5,-,N/A,,Haze,180,2013-08-23 09:53:00
3:31 AM,44.6,37.4,76,30.14,1.8,Calm,Calm,-,N/A,,Haze,0,2013-08-23 10:31:00
3:38 AM,44.6,37.4,76,30.14,2.0,SSW,3.5,-,N/A,,Haze,210,2013-08-23 10:38:00
3:45 AM,44.6,37.4,76,30.14,1.8,South,3.5,-,N/A,,Haze,180,2013-08-23 10:45:00
3:53 AM,44.1,37.0,76,29.98,1.8,South,4.6,-,N/A,,Haze,190,2013-08-23 10:53:00
4:53 AM,44.1,35.1,71,29.97,1.2,Calm,Calm,-,N/A,,Haze,0,2013-08-23 11:53:00
5:53 AM,42.1,34.0,73,29.99,1.0,SSW,3.5,-,N/A,,Haze,200,2013-08-23 12:53:00
6:33 AM,41.0,33.8,76,30.13,0.5,South,4.6,-,N/A,,Haze,180,2013-08-23 13:33:00
6:53 AM,41.0,34.0,76,30.00,0.5,SSW,4.6,-,N/A,,Haze,200,2013-08-23 13:53:00
7:53 AM,46.0,37.0,71,30.01,0.5,South,6.9,-,N/A,,Haze,180,2013-08-23 14:53:00
8:12 AM,48.2,35.6,62,30.13,0.5,South,6.9,-,N/A,,Haze,180,2013-08-23 15:12:00
8:39 AM,53.6,35.6,51,30.13,0.8,Calm,Calm,-,N/A,,Haze,0,2013-08-23 15:39:00
8:53 AM,54.0,36.0,51,29.99,0.8,Calm,Calm,-,N/A,,Haze,0,2013-08-23 15:53:00
9:13 AM,57.2,37.4,48,30.12,1.0,Calm,Calm,-,N/A,,Haze,0,2013-08-23 16:13:00
9:53 AM,66.9,34.0,30,29.95,1.0,SSW,8.1,-,N/A,,Haze,200,2013-08-23 16:53:00
10:53 AM,71.1,32.0,24,29.94,1.0,SSW,10.4,16.1,N/A,,Haze,200,2013-08-23 17:53:00
11:53 AM,73.0,30.9,21,29.94,1.0,Variable,4.6,16.1,N/A,,Haze,0,2013-08-23 18:53:00
12:53 PM,73.9,28.9,19,29.93,1.8,Variable,4.6,-,N/A,,Haze,0,2013-08-23 19:53:00
1:53 PM,73.9,32.0,21,29.92,1.2,SSW,9.2,21.9,N/A,,Haze,210,2013-08-23 20:53:00
2:53 PM,73.9,34.0,23,29.92,1.2,Variable,4.6,19.6,N/A,,Haze,0,2013-08-23 21:53:00
3:53 PM,73.0,36.0,26,29.92,1.5,Variable,6.9,-,N/A,,Haze,0,2013-08-23 22:53:00
4:41 PM,73.4,33.8,23,30.07,2.0,Variable,5.8,-,N/A,,Haze,0,2013-08-23 23:41:00
4:53 PM,73.0,36.0,26,29.91,2.0,SSW,8.1,-,N/A,,Haze,200,2013-08-23 23:53:00
5:33 PM,71.6,33.8,25,30.06,3.0,SSW,10.4,19.6,N/A,,Haze,200,2013-08-24 00:33:00
5:53 PM,72.0,36.0,27,29.92,4.0,SW,6.9,16.1,N/A,,Haze,220,2013-08-24 00:53:00
6:02 PM,71.6,35.6,27,30.06,5.0,SSW,6.9,-,N/A,,Haze,200,2013-08-24 01:02:00
6:53 PM,70.0,36.0,29,29.92,10.0,South,8.1,17.3,N/A,,Scattered Clouds,190,2013-08-24 01:53:00
7:53 PM,63.0,39.9,43,29.93,10.0,Calm,Calm,-,N/A,,Overcast,0,2013-08-24 02:53:00
8:53 PM,59.0,39.0,48,29.93,10.0,SSW,3.5,-,N/A,,Mostly Cloudy,200,2013-08-24 03:53:00
9:53 PM,53.1,39.9,61,29.93,10.0,Calm,Calm,-,N/A,,Overcast,0,2013-08-24 04:53:00
10:53 PM,52.0,37.9,59,29.92,10.0,Calm,Calm,-,N/A,,Overcast,0,2013-08-24 05:53:00
11:53 PM,48.9,37.0,64,29.92,5.0,SSW,4.6,-,N/A,,Haze,200,2013-08-24 06:53:00